Location: Columbia, SC
(34.0000°N, 81.0300°W)
Time: 15:00:22
(UTC-05:00)

Tiangong 1 - Visible Passes

Search period start: 20 January 2017 00:00
Search period end: 30 January 2017 00:00
Orbit: 344 x 365 km, 42.8° (Epoch: 20 January)

Date Brightness Start Highest point End Pass type
(mag) Time Alt. Az. Time Alt. Az. Time Alt. Az.
20 Jan 4.0 19:42:33 10° SSW 19:42:42 11° SSW 19:42:42 11° SSW visible
21 Jan 3.3 18:35:06 10° SSE 18:36:08 11° SE 18:37:04 10° ESE visible
22 Jan 1.5 18:59:51 10° SW 19:02:38 38° SE 19:02:57 37° SE visible
23 Jan 1.9 19:26:24 10° WSW 19:28:44 45° WNW 19:28:44 45° WNW visible
24 Jan 1.2 18:17:06 10° SW 18:20:01 53° SSE 18:22:49 11° ENE visible
24 Jan 4.0 19:53:41 10° WNW 19:54:25 15° WNW 19:54:25 15° WNW visible
25 Jan 1.6 18:43:48 10° W 18:46:41 45° NNW 18:48:24 20° NE visible
26 Jan 2.7 19:11:07 10° WNW 19:13:31 22° NNW 19:13:55 21° N visible
27 Jan 3.7 19:38:35 10° NW 19:39:22 13° NNW 19:39:22 13° NNW visible
28 Jan 2.9 18:28:26 10° WNW 18:30:43 20° NNW 18:32:59 10° NE visible
29 Jan 3.1 18:55:47 10° NW 18:57:39 15° N 18:58:31 14° NNE visible
